Date String (YYYY-MM-DD hh:mm:ss) UTC,Instrument flags,Ambient pressure (hPa),Sample flow (lpm),Bypass flow (lpm),Sample temperature (°C),Ambient temperature (°C),ASC tube jacket temperature (°C),LED temperature (°C),Box temperature (°C),Sample RH (%),Span deviation,Mass concentration (μg/m³),Mass concentration (μg/m³),Mass concentration (μg/m³)
DateTimeUTC,F1_M11,P_M11,Q1_M11,Q2_M11,T1_M11,T2_M11,T3_M11,T4_M11,T5_M11,U1_M11,ZSPAN_M11,X0_M11,X2_M11,X1_M11
2023-01-27 02:00:00,,0822.2,4.98,0.00,22.0,22.0,00.0,30.8,23.9,09.5,0000.0,0018.33,0003.37,0000.90
2023-01-27 02:01:00,,0822.0,5.00,0.00,22.1,22.8,00.0,30.8,24.2,09.4,0000.0,0018.72,0003.39,0000.90
2023-01-27 02:02:00,,0822.0,5.00,0.00,22.2,22.5,00.0,30.9,24.2,09.2,0000.0,0020.59,0003.45,0000.89
2023-01-27 02:03:00,,0822.1,4.99,0.00,22.2,21.9,00.0,31.0,24.1,09.4,0000.0,0020.16,0003.45,0000.90
2023-01-27 02:04:00,,0822.1,4.96,0.00,22.2,21.2,00.0,31.0,23.8,09.6,0000.0,0020.65,0003.42,0000.92
2023-01-27 02:05:00,,0821.9,5.01,0.00,22.1,20.7,00.0,31.0,23.6,09.3,0000.0,0020.10,0003.45,0000.93
2023-01-27 02:06:00,,0821.8,4.97,0.00,22.0,20.2,00.0,31.0,23.5,09.3,0000.0,0017.89,0003.39,0000.93
2023-01-27 02:07:00,,0822.1,5.03,0.00,22.0,19.9,00.0,31.0,23.3,09.1,0000.0,0017.00,0003.38,0000.93
2023-01-27 02:08:00,,0822.0,5.01,0.00,21.9,19.7,00.0,30.9,23.2,09.3,0000.0,0016.34,0003.32,0000.94
2023-01-27 02:09:00,,0822.1,4.99,0.00,21.9,20.7,00.0,30.9,23.5,09.2,0000.0,0015.49,0003.25,0000.94
2023-01-27 02:10:00,,0822.1,5.00,0.00,22.0,21.8,00.0,30.8,23.9,09.4,0000.0,0015.15,0003.22,0000.96
2023-01-27 02:11:00,,0822.1,4.98,0.00,22.1,22.7,00.0,30.8,24.2,09.2,0000.0,0015.47,0003.29,0000.98
2023-01-27 02:12:00,,0822.1,5.00,0.00,22.2,22.5,00.0,30.9,24.2,08.8,0000.0,0016.58,0003.26,0000.97
2023-01-27 02:13:00,,0822.2,4.99,0.00,22.2,21.9,00.0,31.0,24.1,09.4,0000.0,0014.95,0003.23,0000.98
2023-01-27 02:14:00,,0822.3,5.00,0.00,22.2,21.3,00.0,31.0,23.9,09.1,0000.0,0014.65,0003.21,0000.98
2023-01-27 02:15:00,,0822.2,4.98,0.00,22.1,20.8,00.0,31.0,23.7,09.3,0000.0,0013.16,0003.17,0000.96
2023-01-27 02:16:00,,0822.3,5.00,0.00,22.1,20.4,00.0,31.0,23.5,09.0,0000.0,0012.88,0003.05,0000.94
2023-01-27 02:17:00,,0822.3,5.02,0.00,22.0,20.0,00.0,31.0,23.4,09.2,0000.0,0012.35,0002.97,0000.92
2023-01-27 02:18:00,,0822.2,5.00,0.00,21.9,19.8,00.0,31.0,23.3,09.3,0000.0,0012.64,0002.76,0000.89
2023-01-27 02:19:00,,0822.3,5.00,0.00,21.9,20.6,00.0,30.9,23.5,09.1,0000.0,0013.19,0002.76,0000.88
2023-01-27 02:20:00,,0822.4,5.01,0.00,22.0,21.7,00.0,30.8,23.9,09.1,0000.0,0012.96,0002.77,0000.88
2023-01-27 02:21:00,,0822.2,5.00,0.00,22.2,22.6,00.0,30.9,24.2,09.0,0000.0,0012.65,0002.76,0000.88
2023-01-27 02:22:00,,0822.4,4.98,0.00,22.3,22.6,00.0,30.9,24.3,08.8,0000.0,0012.40,0002.66,0000.87
2023-01-27 02:23:00,,0822.4,5.01,0.00,22.3,22.0,00.0,31.0,24.1,09.1,0000.0,0011.02,0002.76,0000.89
2023-01-27 02:24:00,,0822.5,5.00,0.00,22.2,21.4,00.0,31.0,24.0,09.2,0000.0,0010.65,0002.80,0000.90
2023-01-27 02:25:00,,0822.4,5.00,0.00,22.2,20.8,00.0,31.0,23.7,08.8,0000.0,0010.48,0002.70,0000.90
2023-01-27 02:26:00,,0822.4,4.98,0.00,22.1,20.4,00.0,31.0,23.5,08.9,0000.0,0011.52,0002.77,0000.91
2023-01-27 02:27:00,,0822.3,4.97,0.00,22.0,20.0,00.0,31.0,23.4,09.2,0000.0,0012.54,0002.88,0000.92
2023-01-27 02:28:00,,0822.5,5.05,0.00,21.9,19.7,00.0,31.0,23.2,09.1,0000.0,0012.51,0002.94,0000.95
2023-01-27 02:29:00,,0822.4,4.98,0.00,21.9,20.3,00.0,30.9,23.4,08.9,0000.0,0012.22,0002.98,0000.96
2023-01-27 02:30:00,,0822.4,5.02,0.00,22.0,21.4,00.0,30.9,23.8,08.7,0000.0,0011.79,0002.98,0000.94
2023-01-27 02:31:00,,0822.5,4.98,0.00,22.1,22.4,00.0,30.9,24.1,08.8,0000.0,0011.72,0002.91,0000.93
2023-01-27 02:32:00,,0822.5,5.00,0.00,22.2,22.5,00.0,30.9,24.2,08.9,0000.0,0011.64,0002.91,0000.92
2023-01-27 02:33:00,,0822.4,5.00,0.00,22.2,21.9,00.0,31.0,24.1,08.8,0000.0,0011.78,0002.92,0000.92
2023-01-27 02:34:00,,0822.4,5.02,0.00,22.2,21.2,00.0,31.0,23.9,08.8,0000.0,0011.57,0002.85,0000.91
2023-01-27 02:35:00,,0822.4,5.01,0.00,22.1,20.6,00.0,31.0,23.7,09.2,0000.0,0011.82,0002.87,0000.90
2023-01-27 02:36:00,,0822.5,4.99,0.00,22.0,20.2,00.0,31.0,23.4,09.3,0000.0,0012.02,0002.97,0000.90
2023-01-27 02:37:00,,0822.4,5.01,0.00,21.9,19.9,00.0,31.0,23.3,09.3,0000.0,0011.23,0002.98,0000.89
2023-01-27 02:38:00,,0822.4,5.02,0.00,21.9,20.3,00.0,30.9,23.4,09.1,0000.0,0010.62,0003.06,0000.86
2023-01-27 02:39:00,,0822.1,4.99,0.00,22.0,21.5,00.0,30.9,23.8,09.0,0000.0,0011.05,0003.05,0000.85
2023-01-27 02:40:00,,0822.4,5.00,0.00,22.1,22.4,00.0,30.9,24.1,09.3,0000.0,0013.96,0003.13,0000.86
2023-01-27 02:41:00,,0822.4,4.99,0.00,22.2,22.6,00.0,30.9,24.3,08.7,0000.0,0014.35,0003.13,0000.85
2023-01-27 02:42:00,,0822.1,5.02,0.00,22.3,22.0,00.0,31.0,24.1,09.1,0000.0,0014.87,0003.22,0000.86
2023-01-27 02:43:00,,0822.3,4.99,0.00,22.2,21.3,00.0,31.0,24.0,09.1,0000.0,0016.35,0003.34,0000.88
2023-01-27 02:44:00,,0822.3,4.99,0.00,22.2,20.7,00.0,31.0,23.7,09.1,0000.0,0016.68,0003.38,0000.87
2023-01-27 02:45:00,,0822.4,4.98,0.00,22.1,20.2,00.0,31.0,23.5,09.1,0000.0,0018.07,0003.45,0000.88
2023-01-27 02:46:00,,0822.2,5.03,0.00,22.0,19.9,00.0,31.0,23.3,08.7,0000.0,0018.18,0003.33,0000.87
2023-01-27 02:47:00,,0822.3,4.98,0.00,21.9,20.2,00.0,30.9,23.4,09.1,0000.0,0017.93,0003.32,0000.85
2023-01-27 02:48:00,,0822.4,4.99,0.00,22.0,21.4,00.0,30.9,23.8,09.2,0000.0,0018.87,0003.37,0000.86
2023-01-27 02:49:00,,0822.4,4.99,0.00,22.1,22.3,00.0,30.9,24.1,09.1,0000.0,0019.62,0003.36,0000.86
2023-01-27 02:50:00,,0822.2,5.00,0.00,22.2,22.6,00.0,30.9,24.3,09.2,0000.0,0020.24,0003.37,0000.86
2023-01-27 02:51:00,,0822.4,4.99,0.00,22.3,22.0,00.0,31.0,24.1,09.1,0000.0,0017.51,0003.34,0000.85
2023-01-27 02:52:00,,0822.4,5.01,0.00,22.2,21.4,00.0,31.0,23.9,09.1,0000.0,0018.41,0003.33,0000.84
2023-01-27 02:53:00,,0822.4,5.01,0.00,22.2,20.8,00.0,31.0,23.7,09.1,0000.0,0020.18,0003.33,0000.84
2023-01-27 02:54:00,,0822.3,5.03,0.00,22.1,20.4,00.0,31.0,23.5,09.1,0000.0,0018.94,0003.19,0000.81
2023-01-27 02:55:00,,0822.3,5.00,0.00,22.0,20.0,00.0,31.0,23.4,09.0,0000.0,0018.26,0003.15,0000.81
2023-01-27 02:56:00,,0822.5,5.05,0.00,22.0,20.3,00.0,31.0,23.5,09.1,0000.0,0017.12,0003.09,0000.80
2023-01-27 02:57:00,,0822.5,4.98,0.00,22.0,21.5,00.0,30.9,23.8,09.0,0000.0,0017.41,0003.18,0000.82
2023-01-27 02:58:00,,0822.4,5.02,0.00,22.2,22.5,00.0,30.9,24.1,08.9,0000.0,0018.07,0003.12,0000.82
2023-01-27 02:59:00,,0822.4,4.99,0.00,22.3,22.9,00.0,30.9,24.4,08.8,0000.0,0016.74,0002.97,0000.80
